SCP
0 0 0 0 0 0 0 0 0 0 0 0 0 0 0 0 0 0 0 0 0 0 0 0 0 0 0 0 0 0 0 0 0 -0 -0 0 0 0 0 0 0 0 0 0 0 0 0 0 0 0 0 0 0 0
0 0 0 0 0 0 0 0 0 0 -0 -0 -0 0 0 0 0 0 0 0 0 0 0 0 0 0 0 -0 -0 0 0 0 0 -0 -0 -0 0 0 0 0 0 0 0 0 0 0 0 0 0 0 0 0 0 0
0 0 0 0 0 0 0 0 0 -0 -0 -0 -0 0 0 0 0 0 0 0 0 0 0 0 0 0 0 0 -0 -0 -0 0 0 0 0 -0 0 -0 0 0 0 0 -0 0 0 0 0 0 0 0 0 0 0 0
0 0 0 0 0 0 0 0 0 0 -0 -0 -0 0 0 0 0 0 0 0 0 0 0 0 0 0 0 -0 0 -0 -0 -0 0 0 0 -0 0 -0 0 0 0 0 0 0 0 0 0 0 0 0 0 0 0 0
0 0 0 0 0 0 0 0 0 0 -0 -0 -0 -0 0 0 0 0 0 0 0 0 0 0 0 0 0 0 0 -0 0 -0 0 0 -0 -0 -0 0 0 0 0 0 0 0 0 0 0 0 0 0 0 0 0 0
0 0 0 0 0 0 0 0 0 0 -0 -0 -0 -0 0 0 0 0 0 0 0 0 0 0 0 0 0 0 0 0 0 -0 -0 0 0 0 0 0 0 0 0 0 0 0 0 0 0 0 0 0 0 0 0 0
0 0 0 0 0 0 0 0 0 0 0 -0 -0 -0 0 0 0 0 0 0 0 0 0 0 0 0 0 0 0 0 0 0 0 0 0 0 0 0 0 -0 0 0 0 -0 0 -0 0 0 0 0 0 0 0 0
0 0 0 0 0 0 0 0 0 0 0 -0 -0 0 0 0 0 0 0 0 0 0 0 0 0 0 0 0 0 0 0 0 0 0 0 0 0 0 0 0 -0 -0 0 0 0 -0 -0 0 0 0 0 0 0 0
0 0 0 0 0 0 0 0 0 0 -0 -0 0 0 0 0 0 0 0 0 0 0 0 0 0 0 0 0 0 0 0 0 0 0 0 0 0 0 -0 -0 -0 -0 -0 -0 0 -0 -0 -0 0 0 0 0 0 0
0 0 0 0 0 0 0 0 0 0 -0 0 0 0 0 0 0 0 0 0 0 0 0 0 0 0 0 0 0 0 0 0 0 0 0 0 0 0 -0 -0 0 0 -0 0 -0 -0 -0 -0 -0 0 0 0 0 0
0 0 0 0 0 -0 0 0 0 -0 0 0 0 0 0 0 0 0 0 0 0 0 0 0 0 0 0 0 0 0 0 0 0 0 0 0 0 0 0 0 0 0 0 0 0 0 -0 -0 -0 0 0 0 0 0
-0 0 0 0 0 -0 -0 -0 0 0 0 0 0 0 0 0 0 0 -0 0 0 0 0 0 0 0 0 0 0 0 0 0 0 0 0 0 0 0 0 -0 -0 0 0 0 0 0 0 0 0 -0 0 0 0 0
-0 -0 -0 0 0 0 -0 0 0 0 0 0 0 0 0 0 0 0 0 -0 -0 0 0 0 0 0 -0 0 0 0 0 0 0 0 0 0 0 0 0 -0 -0 0 0 0 0 0 0 0 0 0 -0 0 0 0
-0 -0 -0 0 0 0 0 0 -0 0 0 0 0 0 0 0 0 0 0 0 0 0 0 0 0 0 0 0 0 0 0 0 0 0 0 0 0 0 0 0 0 -0 -0 -0 0 0 0 0 0 0 0 0 0 0
-0 -0 -0 0 0 0 -0 0 0 0 0 0 0 0 0 0 0 0 0 0 0 0 0 0 0 0 0 0 0 0 0 0 0 0 0 0 0 0 0 0 0 0 -0 0 0 0 0 0 0 0 0 0 0 0
0 -0 0 0 0 -0 0 0 0 0 0 0 0 0 0 0 0 0 0 0 0 0 0 0 0 0 0 0 0 0 -0 -0 0 0 0 0 -0 0 0 0 -0 0 -0 0 0 0 0 0 0 0 0 0 0 0
0 0 0 0 0 0 0 0 0 0 0 0 0 0 0 0 0 0 0 0 0 0 0 0 0 0 0 0 0 0 0 0 0 0 0 -0 0 -0 0 0 0 0 0 0 0 0 0 0 -0 0 0 0 0 0
0 0 0 0 -0 -0 0 0 0 0 0 0 0 0 0 0 0 0 0 0 0 0 0 0 0 0 0 0 0 0 0 0 0 0 0 0 -0 -0 -0 0 0 0 0 0 -0 0 0 0 0 0 0 0 0 0
0 0 0 0 0 -0 0 0 0 0 0 0 0 0 0 0 0 0 0 0 0 0 0 0 0 0 0 0 0 0 0 0 0 0 0 0 0 -0 -0 -0 -0 -0 -0 -0 -0 0 0 0 0 0 0 0 0 0
0 0 0 0 0 0 0 0 0 0 0 0 0 0 0 0 0 0 0 0 0 0 0 0 0 0 0 0 0 0 0 0 0 0 0 0 0 -0 -0 -0 -0 -0 -0 -0 -0 -0 0 0 0 0 0 0 0 0
0 0 0 0 0 0 0 0 0 0 0 0 0 0 0 0 0 0 0 0 0 0 0 0 0 0 0 0 0 0 0 0 0 0 0 0 0 0 -0 -0 -0 -0 -0 -0 -0 -0 -0 -0 -0 0 -0 0 0 0
0 0 0 0 0 0 0 0 0 0 0 0 0 0 0 0 0 0 0 0 0 0 0 0 0 0 0 0 0 0 0 0 0 0 0 0 0 0 0 -0 -0 -0 -0 -0 -0 -0 -0 -0 -0 -0 0 0 0 0
0 0 0 0 0 0 0 0 0 0 0 0 0 0 0 0 0 0 0 0 0 0 0 0 0 0 0 0 0 0 0 0 0 0 0 0 0 0 0 0 -0 -0 -0 -0 -0 -0 -0 -0 -0 -0 -0 -0 0 0
0 0 0 0 0 0 0 0 0 0 0 0 0 0 0 0 0 0 0 0 0 0 0 0 0 0 0 0 0 0 0 0 0 0 0 0 0 0 0 0 0 -0 -0 -0 -0 -0 -0 -0 -0 -0 -0 -0 -0 -0
0 0 0 0 0 0 0 0 0 0 0 0 0 0 0 0 0 0 0 0 0 0 0 0 0 0 0 0 0 0 0 0 0 0 0 0 0 0 0 0 0 -0 0 0 0 -0 -0 -0 -0 -0 -0 -0 -0 -0
0 0 0 0 0 0 0 0 0 0 0 0 0 0 0 0 0 0 0 0 0 0 0 0 0 0 0 0 0 0 0 0 0 0 0 0 0 0 0 0 0 0 0 0 0 0 0 0 -0 -0 -0 -0 0 0
0 0 0 0 0 0 0 0 0 0 0 0 0 0 0 0 0 0 0 0 0 0 0 0 0 0 0 0 0 0 0 0 0 0 0 0 0 0 0 0 0 0 0 0 0 0 0 0 0 0 0 0 0 0
0 0 0 0 0 0 0 0 0 0 0 0 0 0 0 0 0 0 0 0 0 0 0 0 0 0 0 0 0 0 0 0 0 0 0 0 0 0 0 0 0 0 0 0 0 0 0 0 0 0 0 0 0 0
0 0 0 0 0 0 0 0 0 0 0 0 0 0 0 0 0 0 0 0 0 0 0 0 0 0 0 0 0 0 0 0 0 0 0 0 0 0 0 0 0 0 0 0 0 0 0 0 0 0 0 0 0 0
0 0 0 0 0 0 0 0 0 0 0 0 0 0 0 0 0 0 0 0 0 0 0 0 0 0 0 0 0 0 0 0 0 0 0 0 0 0 0 0 0 0 0 0 0 0 0 0 0 0 0 0 0 0
0 0 0 0 0 0 0 0 0 0 0 0 0 0 0 0 0 0 0 0 0 0 0 0 0 0 0 0 0 0 0 0 0 0 0 0 0 0 0 0 0 0 0 0 0 0 0 0 0 0 0 0 0 0
0 0 0 0 0 0 0 0 0 0 0 0 0 0 0 0 0 0 0 0 0 0 0 0 0 0 0 0 0 0 0 0 0 0 0 0 0 0 0 0 0 0 0 0 0 0 0 0 0 0 0 0 0 0
0 0 0 0 0 0 0 0 0 0 0 0 0 0 0 0 0 0 0 0 0 0 0 0 0 0 0 0 0 0 0 0 0 0 0 0 0 0 0 0 0 0 0 0 0 0 0 0 0 0 0 0 0 0
Wind_Speed_500mb
57 60 63 67 68 65 64 63 50 54 63 67 67 59 34 23 14 23 27 24 27 18 49 43 21 25 22 19 6 12 18 1 4 3 1 6 4 3 6 5 3 6 9 6 6 7 10 31 15 13 15 32 36 41
56 59 62 65 69 69 66 62 50 59 65 68 68 56 37 25 15 21 29 20 16 30 43 66 61 45 45 47 41 10 9 10 7 4 4 5 4 2 6 5 6 5 5 4 5 5 9 34 15 23 29 38 39 52
57 58 61 65 67 70 70 66 51 61 69 68 67 54 34 28 17 21 28 25 29 24 35 18 18 30 22 20 15 14 9 9 7 10 4 4 5 3 4 1 2 1 8 5 3 5 25 45 29 29 47 55 61 58
59 59 61 63 67 69 72 71 58 60 70 68 64 48 28 26 23 17 20 21 21 15 9 22 37 23 18 28 16 28 41 17 13 6 4 4 5 6 6 4 4 3 4 1 10 11 33 5 46 59 73 74 75 71
61 62 63 64 66 71 73 75 65 61 69 67 61 41 29 23 26 27 20 14 17 12 9 25 38 8 19 24 26 17 7 35 22 7 4 5 6 2 2 2 3 6 4 2 5 15 17 27 50 60 64 73 82 72
61 66 65 68 68 69 75 77 66 65 68 65 57 36 29 23 25 26 9 6 13 22 10 7 21 23 28 42 38 28 10 8 11 6 6 10 11 7 3 3 12 19 17 18 7 28 38 52 52 39 64 69 74 58
62 66 67 67 72 71 72 76 66 72 69 63 54 37 24 18 18 12 9 24 21 10 7 10 11 12 27 28 21 16 7 3 7 5 7 7 6 9 4 0 19 32 33 22 42 40 28 22 48 67 67 63 64 47
61 62 65 69 70 73 69 71 67 75 71 60 49 33 18 8 10 3 11 24 14 7 5 5 9 14 15 12 9 17 7 2 5 6 8 5 13 4 5 5 18 25 36 28 18 32 43 53 53 57 59 55 57 56
58 58 61 63 66 71 72 69 66 74 72 51 42 21 5 3 7 9 19 1 3 5 2 4 5 7 14 7 8 13 8 3 10 3 4 11 5 3 6 21 32 28 19 34 48 45 46 49 46 56 53 51 57 55
61 55 57 60 65 72 76 70 58 72 70 44 23 8 4 11 26 10 2 3 8 6 5 6 8 6 7 7 6 11 8 3 4 2 14 3 1 11 11 35 42 43 42 43 43 39 43 38 41 53 49 48 56 52
59 60 56 59 60 68 73 59 65 73 63 46 20 9 22 18 5 4 4 1 1 4 11 13 13 7 5 3 3 6 3 3 3 3 7 5 5 9 40 43 48 43 41 39 56 57 51 55 51 48 55 49 49 50
57 59 54 51 55 63 65 59 66 66 61 53 34 38 18 5 4 1 2 5 3 6 7 6 10 8 4 4 1 4 1 3 4 11 3 3 8 54 58 59 44 43 37 35 45 48 45 46 51 56 55 50 48 52
58 60 56 49 52 55 58 61 65 62 57 35 8 7 6 3 8 6 2 6 5 7 12 15 10 6 3 5 2 5 7 4 15 4 5 5 35 60 65 62 54 48 40 30 26 30 36 41 41 51 59 45 47 50
57 62 64 52 53 49 61 64 67 59 30 6 6 10 7 6 7 8 9 8 11 17 36 31 4 2 4 6 2 4 4 5 8 8 4 9 40 54 62 58 57 57 51 39 36 33 31 30 38 43 56 48 57 48
56 59 56 47 46 54 59 62 56 47 10 8 6 8 10 16 12 10 14 15 22 23 21 6 1 3 5 4 4 4 8 5 5 5 6 38 64 63 64 56 53 63 77 53 30 27 27 26 20 35 38 41 47 37
53 59 48 39 52 57 59 59 46 10 8 11 15 7 10 3 10 10 15 22 19 11 8 2 3 4 3 2 7 2 3 5 7 7 39 56 59 63 68 64 62 59 82 74 47 16 18 24 20 17 34 40 53 37
48 54 47 52 56 54 59 48 11 12 11 11 14 27 23 15 19 22 22 25 16 9 3 4 2 8 3 5 3 5 6 7 20 47 52 45 48 58 59 61 60 60 63 75 46 38 28 23 27 26 29 25 21 28
55 50 44 44 53 55 45 8 9 11 14 23 10 25 29 31 35 31 29 23 17 8 10 7 10 4 7 7 7 7 22 28 35 35 30 32 42 50 53 52 57 60 66 85 69 45 39 38 25 24 32 34 23 26
49 44 36 29 31 30 12 7 9 10 20 21 29 34 34 29 34 35 30 30 24 20 8 11 5 6 7 12 14 16 20 14 23 28 31 20 28 40 48 48 50 49 57 58 63 58 59 51 41 33 32 33 35 34
43 42 26 19 19 7 10 12 10 14 12 9 20 23 23 27 33 36 39 35 28 12 8 8 9 13 19 22 20 20 22 22 26 24 24 19 22 31 39 41 45 51 53 49 51 46 52 60 54 49 37 24 24 28
42 33 24 18 13 18 14 12 14 14 16 13 17 13 14 20 25 29 36 30 20 12 6 22 32 37 29 25 19 16 18 18 16 15 20 21 19 23 27 33 36 41 47 50 47 44 41 41 46 51 59 47 22 23
40 34 29 20 13 12 20 24 18 11 13 15 18 20 13 10 16 29 27 21 14 25 31 34 42 36 36 37 34 22 17 18 16 14 15 13 17 19 23 30 38 41 40 40 39 41 39 38 45 50 59 57 48 55
37 32 17 17 15 15 16 20 14 11 7 7 5 6 7 7 9 7 9 17 31 43 42 39 41 39 37 35 35 27 22 17 16 11 5 7 13 15 16 24 33 36 34 33 35 37 35 34 33 37 45 54 57 50
26 11 10 12 24 11 10 10 14 9 10 3 3 7 6 10 7 7 8 11 35 33 28 25 21 28 35 34 38 35 25 17 10 9 1 6 15 16 17 20 24 25 27 26 29 32 35 33 32 31 30 32 43 52
9 15 12 15 16 9 9 6 6 1 9 9 6 7 7 6 2 6 7 10 27 33 34 34 33 36 44 43 37 34 26 14 12 8 4 8 12 19 18 15 18 25 23 19 22 26 29 30 31 27 26 24 21 33
12 18 21 15 8 10 8 6 9 11 6 7 11 8 3 2 4 10 6 11 27 33 30 33 41 39 46 37 34 29 25 22 19 8 5 8 13 19 23 24 28 20 21 24 18 15 20 23 26 28 27 30 25 26
11 11 17 19 11 7 8 13 10 3 6 9 5 1 1 6 9 6 18 30 30 23 24 22 22 33 38 35 30 28 26 26 16 6 9 6 10 14 15 19 22 20 21 21 22 20 18 21 22 22 21 21 25 24
23 11 13 12 15 18 5 4 5 8 8 9 4 7 6 8 6 9 15 36 27 18 13 6 20 30 24 27 30 25 28 27 20 16 11 5 8 7 9 15 19 16 15 16 22 25 28 27 26 25 21 19 17 18
16 19 23 8 15 14 19 14 10 17 13 18 8 7 7 6 10 22 21 27 26 13 17 17 22 27 27 27 26 26 27 30 26 23 19 14 12 6 7 9 12 11 14 15 15 17 19 22 26 25 22 18 17 15
17 33 18 15 10 14 25 31 21 29 28 27 32 24 26 33 37 35 37 41 39 23 16 18 13 12 14 23 29 37 39 34 27 21 20 14 7 5 6 6 5 6 9 12 19 26 27 23 19 18 18 19 16 14
13 35 16 23 20 42 43 46 39 43 45 41 41 39 42 36 30 24 28 29 35 20 22 22 23 23 17 18 29 33 26 22 19 12 6 5 7 9 10 9 6 7 9 15 21 21 20 19 19 19 18 16 15 15
24 28 15 9 8 21 28 32 32 30 39 36 33 28 19 21 13 5 8 13 15 23 20 23 31 32 31 34 31 28 20 17 9 5 12 15 14 13 14 14 12 6 3 8 9 9 10 15 19 20 20 19 16 14
27 25 26 17 9 8 20 22 16 9 14 13 13 13 13 12 7 5 6 8 9 16 24 21 23 25 26 21 7 10 15 19 22 15 14 11 10 6 5 5 3 1 2 2 1 4 7 11 14 15 16 15 13 12
Wind_Direction_500mb
341 343 345 347 346 347 346 346 345 349 347 343 341 340 342 322 309 286 290 283 261 266 283 271 272 256 262 256 275 324 323 342 297 261 222 261 279 293 332 37 148 118 168 181 197 236 273 1 12 54 277 306 313 315
339 341 343 344 345 346 346 345 342 347 349 345 343 340 340 330 306 273 279 289 269 256 269 294 294 284 272 273 265 262 266 291 276 313 340 281 289 3 287 207 244 154 193 126 251 287 326 322 306 299 321 317 319 313
336 338 340 342 343 344 345 345 339 343 347 346 344 342 337 338 314 259 275 271 275 276 308 330 325 332 320 296 273 221 235 235 245 256 337 288 288 262 273 178 113 72 179 211 268 23 325 309 316 326 331 327 323 325
333 335 336 339 341 342 343 343 337 341 345 345 344 343 334 339 328 309 266 273 254 276 283 287 322 330 350 343 324 254 253 263 301 322 272 266 283 307 336 334 339 287 282 218 275 311 322 195 335 334 331 337 336 342
332 332 335 335 338 340 340 341 338 338 344 342 340 339 333 326 331 330 298 271 262 265 286 300 326 298 313 314 310 308 287 249 265 279 243 246 248 272 262 207 252 205 199 249 266 261 279 287 316 336 335 328 338 335
331 333 331 333 336 336 338 340 338 338 342 339 336 330 326 315 323 336 319 289 290 241 299 305 323 310 339 328 317 244 276 258 197 226 269 268 248 209 323 267 9 3 300 226 238 303 292 299 317 334 334 334 343 344
324 329 330 329 334 334 334 338 335 338 341 336 333 330 318 302 307 320 315 307 320 242 295 299 299 290 325 358 4 37 55 227 205 231 241 244 274 205 216 10 348 338 324 296 265 305 310 322 312 317 325 330 339 348
316 321 328 329 330 335 332 334 332 337 340 335 331 331 334 304 309 257 291 315 311 230 289 292 279 312 340 331 359 6 14 272 223 284 307 325 315 28 34 333 342 335 337 327 257 267 289 299 307 307 312 326 329 345
312 318 324 330 331 335 335 333 329 335 341 336 331 328 342 5 335 293 314 299 151 265 196 259 289 300 324 306 1 345 354 351 350 285 353 344 3 2 320 336 324 324 288 286 304 288 279 281 295 290 298 320 322 339
306 313 320 325 329 330 333 333 330 335 342 342 335 327 256 323 323 317 218 211 203 226 231 248 243 268 286 305 30 4 16 19 332 253 312 259 254 245 280 317 312 300 291 282 270 281 283 278 281 284 294 301 310 323
304 308 317 323 327 329 331 330 333 334 348 351 332 288 308 317 288 247 222 180 312 264 219 244 235 266 296 342 334 25 337 317 321 359 328 335 333 273 314 310 318 313 303 296 270 272 273 267 268 277 278 279 301 311
298 305 312 321 325 328 330 328 334 336 336 322 303 293 301 288 248 171 308 320 216 255 271 231 304 266 308 317 116 349 34 356 310 335 300 357 291 316 326 331 329 336 342 310 283 270 270 264 257 262 265 274 287 304
297 297 300 315 324 322 327 331 335 329 327 322 280 281 279 274 31 140 231 301 307 270 275 326 323 331 305 17 114 50 41 320 322 355 343 251 311 326 330 334 333 347 330 340 323 276 267 256 258 258 258 264 276 285
297 296 299 302 316 316 317 323 329 325 326 279 257 290 175 260 245 187 188 206 263 252 289 318 283 42 357 48 308 8 346 47 20 27 298 275 311 320 332 341 334 333 331 330 308 304 274 264 281 257 253 261 266 276
297 299 305 311 308 315 315 319 325 319 233 234 230 247 227 235 238 234 251 274 281 295 303 301 52 42 2 71 5 14 15 351 194 246 252 301 319 332 339 336 352 353 348 346 316 294 270 274 288 243 252 261 261 261
300 301 315 318 316 314 318 320 324 285 244 230 228 263 246 270 268 243 239 274 303 280 311 22 70 59 59 27 48 94 312 257 276 241 301 325 333 343 350 358 6 4 9 10 11 341 275 275 272 258 236 245 267 249
296 294 308 316 319 317 320 315 277 221 232 232 244 230 238 256 238 263 284 290 286 288 228 117 19 221 87 41 330 200 212 224 260 305 317 332 338 348 355 1 7 11 14 18 21 12 351 309 282 277 280 289 285 228
286 291 303 320 318 328 324 272 237 244 245 242 235 249 241 246 252 256 273 270 262 229 177 208 130 137 175 177 257 238 238 283 301 308 332 342 352 358 5 7 7 14 22 23 26 33 24 14 346 308 291 291 291 234
292 298 310 312 312 334 300 265 242 263 248 260 259 258 260 265 260 257 259 273 270 241 193 168 140 191 226 217 229 254 267 285 314 316 329 331 353 3 6 10 12 13 19 26 25 27 32 32 26 1 326 299 283 260
294 295 305 300 282 295 274 264 246 262 266 260 263 259 257 258 271 268 262 251 246 209 176 191 207 217 211 231 246 253 260 279 295 302 321 332 348 359 4 11 17 16 17 16 22 21 24 22 15 13 8 336 294 281
299 301 297 288 269 219 255 262 245 248 273 262 279 273 262 255 258 258 253 244 207 211 216 217 240 257 244 229 234 242 242 261 276 280 310 324 346 345 358 10 10 14 14 17 20 22 30 24 21 10 7 19 360 303
286 294 294 274 226 226 251 238 233 283 271 264 282 264 240 237 238 245 247 203 218 235 231 246 261 259 239 227 222 240 249 252 248 265 305 302 320 339 353 4 6 10 14 17 16 16 24 27 22 24 22 19 38 43
287 286 255 215 222 230 252 226 221 217 235 259 281 268 251 243 231 245 236 236 244 246 238 249 257 247 236 228 218 225 233 240 250 257 287 327 322 330 347 6 7 5 11 16 19 11 16 24 22 31 34 34 31 33
268 235 231 224 207 256 247 230 214 239 233 241 215 260 244 232 244 220 248 243 253 243 240 233 239 240 222 215 215 217 207 215 228 191 295 349 3 2 327 337 355 357 6 8 13 15 7 8 14 17 29 45 53 50
221 230 206 236 217 231 232 241 223 190 243 200 212 264 265 228 179 249 235 257 258 252 245 257 250 241 228 219 208 198 200 219 227 225 296 334 343 342 338 351 351 346 347 358 8 9 9 8 15 17 21 42 56 75
216 216 195 205 210 205 218 236 214 220 207 213 230 247 266 110 268 252 245 269 260 266 273 262 251 235 218 223 224 204 191 196 201 206 348 331 349 347 335 331 334 337 348 356 358 4 12 16 15 17 27 43 35 72
226 254 222 224 230 242 273 256 249 241 238 217 238 298 128 226 248 273 343 6 328 306 301 281 243 222 216 186 180 187 198 196 200 262 266 272 319 321 324 329 340 346 348 350 5 7 19 14 22 26 33 49 51 44
221 227 202 204 209 220 245 258 231 224 231 223 172 197 225 210 245 330 344 353 348 331 293 234 180 183 187 187 186 193 193 198 205 215 202 219 301 318 331 328 339 352 349 6 45 54 48 39 28 23 25 29 40 40
215 211 198 211 214 227 215 211 220 224 219 190 182 216 243 242 282 297 294 300 329 308 248 204 200 203 202 200 201 204 210 207 211 205 214 222 204 251 303 309 299 312 328 345 356 14 31 35 24 14 13 13 16 18
226 198 194 207 202 220 227 221 243 254 247 241 257 258 263 268 278 292 292 267 291 294 241 216 210 239 232 227 211 196 192 196 209 224 225 214 226 256 285 313 337 338 330 341 352 355 355 349 3 2 1 358 359 4
185 189 219 227 242 247 251 257 261 260 262 262 267 258 259 270 280 270 279 269 252 294 252 240 247 232 203 204 212 200 198 209 205 206 221 240 237 240 231 229 259 293 304 316 327 333 343 352 0 1 358 359 1 3
198 191 199 216 256 255 240 245 251 244 247 248 248 239 231 202 202 227 305 232 271 229 236 239 216 196 199 198 195 200 190 174 179 263 294 273 255 253 261 274 273 268 320 338 354 13 14 8 5 3 1 7 12 18
212 215 216 251 283 248 246 209 215 233 210 210 212 183 168 166 107 43 358 297 252 241 236 206 182 165 153 150 179 288 290 295 293 255 220 222 227 225 215 210 205 236 318 340 11 324 351 6 9 6 1 3 11 26
Wind_Speed_850mb
57 60 63 67 68 65 64 63 50 54 63 67 67 59 34 23 14 23 27 24 27 18 49 43 21 25 22 19 6 12 18 1 4 3 1 6 4 3 6 5 3 6 9 6 6 7 10 31 15 13 15 32 36 41
56 59 62 65 69 69 66 62 50 59 65 68 68 56 37 25 15 21 29 20 16 30 43 66 61 45 45 47 41 10 9 10 7 4 4 5 4 2 6 5 6 5 5 4 5 5 9 34 15 23 29 38 39 52
57 58 61 65 67 70 70 66 51 61 69 68 67 54 34 28 17 21 28 25 29 24 35 18 18 30 22 20 15 14 9 9 7 10 4 4 5 3 4 1 2 1 8 5 3 5 25 45 29 29 47 55 61 58
59 59 61 63 67 69 72 71 58 60 70 68 64 48 28 26 23 17 20 21 21 15 9 22 37 23 18 28 16 28 41 17 13 6 4 4 5 6 6 4 4 3 4 1 10 11 33 5 46 59 73 74 75 71
61 62 63 64 66 71 73 75 65 61 69 67 61 41 29 23 26 27 20 14 17 12 9 25 38 8 19 24 26 17 7 35 22 7 4 5 6 2 2 2 3 6 4 2 5 15 17 27 50 60 64 73 82 72
61 66 65 68 68 69 75 77 66 65 68 65 57 36 29 23 25 26 9 6 13 22 10 7 21 23 28 42 38 28 10 8 11 6 6 10 11 7 3 3 12 19 17 18 7 28 38 52 52 39 64 69 74 58
62 66 67 67 72 71 72 76 66 72 69 63 54 37 24 18 18 12 9 24 21 10 7 10 11 12 27 28 21 16 7 3 7 5 7 7 6 9 4 0 19 32 33 22 42 40 28 22 48 67 67 63 64 47
61 62 65 69 70 73 69 71 67 75 71 60 49 33 18 8 10 3 11 24 14 7 5 5 9 14 15 12 9 17 7 2 5 6 8 5 13 4 5 5 18 25 36 28 18 32 43 53 53 57 59 55 57 56
58 58 61 63 66 71 72 69 66 74 72 51 42 21 5 3 7 9 19 1 3 5 2 4 5 7 14 7 8 13 8 3 10 3 4 11 5 3 6 21 32 28 19 34 48 45 46 49 46 56 53 51 57 55
61 55 57 60 65 72 76 70 58 72 70 44 23 8 4 11 26 10 2 3 8 6 5 6 8 6 7 7 6 11 8 3 4 2 14 3 1 11 11 35 42 43 42 43 43 39 43 38 41 53 49 48 56 52
59 60 56 59 60 68 73 59 65 73 63 46 20 9 22 18 5 4 4 1 1 4 11 13 13 7 5 3 3 6 3 3 3 3 7 5 5 9 40 43 48 43 41 39 56 57 51 55 51 48 55 49 49 50
57 59 54 51 55 63 65 59 66 66 61 53 34 38 18 5 4 1 2 5 3 6 7 6 10 8 4 4 1 4 1 3 4 11 3 3 8 54 58 59 44 43 37 35 45 48 45 46 51 56 55 50 48 52
58 60 56 49 52 55 58 61 65 62 57 35 8 7 6 3 8 6 2 6 5 7 12 15 10 6 3 5 2 5 7 4 15 4 5 5 35 60 65 62 54 48 40 30 26 30 36 41 41 51 59 45 47 50
57 62 64 52 53 49 61 64 67 59 30 6 6 10 7 6 7 8 9 8 11 17 36 31 4 2 4 6 2 4 4 5 8 8 4 9 40 54 62 58 57 57 51 39 36 33 31 30 38 43 56 48 57 48
56 59 56 47 46 54 59 62 56 47 10 8 6 8 10 16 12 10 14 15 22 23 21 6 1 3 5 4 4 4 8 5 5 5 6 38 64 63 64 56 53 63 77 53 30 27 27 26 20 35 38 41 47 37
53 59 48 39 52 57 59 59 46 10 8 11 15 7 10 3 10 10 15 22 19 11 8 2 3 4 3 2 7 2 3 5 7 7 39 56 59 63 68 64 62 59 82 74 47 16 18 24 20 17 34 40 53 37
48 54 47 52 56 54 59 48 11 12 11 11 14 27 23 15 19 22 22 25 16 9 3 4 2 8 3 5 3 5 6 7 20 47 52 45 48 58 59 61 60 60 63 75 46 38 28 23 27 26 29 25 21 28
55 50 44 44 53 55 45 8 9 11 14 23 10 25 29 31 35 31 29 23 17 8 10 7 10 4 7 7 7 7 22 28 35 35 30 32 42 50 53 52 57 60 66 85 69 45 39 38 25 24 32 34 23 26
49 44 36 29 31 30 12 7 9 10 20 21 29 34 34 29 34 35 30 30 24 20 8 11 5 6 7 12 14 16 20 14 23 28 31 20 28 40 48 48 50 49 57 58 63 58 59 51 41 33 32 33 35 34
43 42 26 19 19 7 10 12 10 14 12 9 20 23 23 27 33 36 39 35 28 12 8 8 9 13 19 22 20 20 22 22 26 24 24 19 22 31 39 41 45 51 53 49 51 46 52 60 54 49 37 24 24 28
42 33 24 18 13 18 14 12 14 14 16 13 17 13 14 20 25 29 36 30 20 12 6 22 32 37 29 25 19 16 18 18 16 15 20 21 19 23 27 33 36 41 47 50 47 44 41 41 46 51 59 47 22 23
40 34 29 20 13 12 20 24 18 11 13 15 18 20 13 10 16 29 27 21 14 25 31 34 42 36 36 37 34 22 17 18 16 14 15 13 17 19 23 30 38 41 40 40 39 41 39 38 45 50 59 57 48 55
37 32 17 17 15 15 16 20 14 11 7 7 5 6 7 7 9 7 9 17 31 43 42 39 41 39 37 35 35 27 22 17 16 11 5 7 13 15 16 24 33 36 34 33 35 37 35 34 33 37 45 54 57 50
26 11 10 12 24 11 10 10 14 9 10 3 3 7 6 10 7 7 8 11 35 33 28 25 21 28 35 34 38 35 25 17 10 9 1 6 15 16 17 20 24 25 27 26 29 32 35 33 32 31 30 32 43 52
9 15 12 15 16 9 9 6 6 1 9 9 6 7 7 6 2 6 7 10 27 33 34 34 33 36 44 43 37 34 26 14 12 8 4 8 12 19 18 15 18 25 23 19 22 26 29 30 31 27 26 24 21 33
12 18 21 15 8 10 8 6 9 11 6 7 11 8 3 2 4 10 6 11 27 33 30 33 41 39 46 37 34 29 25 22 19 8 5 8 13 19 23 24 28 20 21 24 18 15 20 23 26 28 27 30 25 26
11 11 17 19 11 7 8 13 10 3 6 9 5 1 1 6 9 6 18 30 30 23 24 22 22 33 38 35 30 28 26 26 16 6 9 6 10 14 15 19 22 20 21 21 22 20 18 21 22 22 21 21 25 24
23 11 13 12 15 18 5 4 5 8 8 9 4 7 6 8 6 9 15 36 27 18 13 6 20 30 24 27 30 25 28 27 20 16 11 5 8 7 9 15 19 16 15 16 22 25 28 27 26 25 21 19 17 18
16 19 23 8 15 14 19 14 10 17 13 18 8 7 7 6 10 22 21 27 26 13 17 17 22 27 27 27 26 26 27 30 26 23 19 14 12 6 7 9 12 11 14 15 15 17 19 22 26 25 22 18 17 15
17 33 18 15 10 14 25 31 21 29 28 27 32 24 26 33 37 35 37 41 39 23 16 18 13 12 14 23 29 37 39 34 27 21 20 14 7 5 6 6 5 6 9 12 19 26 27 23 19 18 18 19 16 14
13 35 16 23 20 42 43 46 39 43 45 41 41 39 42 36 30 24 28 29 35 20 22 22 23 23 17 18 29 33 26 22 19 12 6 5 7 9 10 9 6 7 9 15 21 21 20 19 19 19 18 16 15 15
24 28 15 9 8 21 28 32 32 30 39 36 33 28 19 21 13 5 8 13 15 23 20 23 31 32 31 34 31 28 20 17 9 5 12 15 14 13 14 14 12 6 3 8 9 9 10 15 19 20 20 19 16 14
27 25 26 17 9 8 20 22 16 9 14 13 13 13 13 12 7 5 6 8 9 16 24 21 23 25 26 21 7 10 15 19 22 15 14 11 10 6 5 5 3 1 2 2 1 4 7 11 14 15 16 15 13 12
Wind_Direction_850mb
341 343 345 347 346 347 346 346 345 349 347 343 341 340 342 322 309 286 290 283 261 266 283 271 272 256 262 256 275 324 323 342 297 261 222 261 279 293 332 37 148 118 168 181 197 236 273 1 12 54 277 306 313 315
339 341 343 344 345 346 346 345 342 347 349 345 343 340 340 330 306 273 279 289 269 256 269 294 294 284 272 273 265 262 266 291 276 313 340 281 289 3 287 207 244 154 193 126 251 287 326 322 306 299 321 317 319 313
336 338 340 342 343 344 345 345 339 343 347 346 344 342 337 338 314 259 275 271 275 276 308 330 325 332 320 296 273 221 235 235 245 256 337 288 288 262 273 178 113 72 179 211 268 23 325 309 316 326 331 327 323 325
333 335 336 339 341 342 343 343 337 341 345 345 344 343 334 339 328 309 266 273 254 276 283 287 322 330 350 343 324 254 253 263 301 322 272 266 283 307 336 334 339 287 282 218 275 311 322 195 335 334 331 337 336 342
332 332 335 335 338 340 340 341 338 338 344 342 340 339 333 326 331 330 298 271 262 265 286 300 326 298 313 314 310 308 287 249 265 279 243 246 248 272 262 207 252 205 199 249 266 261 279 287 316 336 335 328 338 335
331 333 331 333 336 336 338 340 338 338 342 339 336 330 326 315 323 336 319 289 290 241 299 305 323 310 339 328 317 244 276 258 197 226 269 268 248 209 323 267 9 3 300 226 238 303 292 299 317 334 334 334 343 344
324 329 330 329 334 334 334 338 335 338 341 336 333 330 318 302 307 320 315 307 320 242 295 299 299 290 325 358 4 37 55 227 205 231 241 244 274 205 216 10 348 338 324 296 265 305 310 322 312 317 325 330 339 348
316 321 328 329 330 335 332 334 332 337 340 335 331 331 334 304 309 257 291 315 311 230 289 292 279 312 340 331 359 6 14 272 223 284 307 325 315 28 34 333 342 335 337 327 257 267 289 299 307 307 312 326 329 345
312 318 324 330 331 335 335 333 329 335 341 336 331 328 342 5 335 293 314 299 151 265 196 259 289 300 324 306 1 345 354 351 350 285 353 344 3 2 320 336 324 324 288 286 304 288 279 281 295 290 298 320 322 339
306 313 320 325 329 330 333 333 330 335 342 342 335 327 256 323 323 317 218 211 203 226 231 248 243 268 286 305 30 4 16 19 332 253 312 259 254 245 280 317 312 300 291 282 270 281 283 278 281 284 294 301 310 323
304 308 317 323 327 329 331 330 333 334 348 351 332 288 308 317 288 247 222 180 312 264 219 244 235 266 296 342 334 25 337 317 321 359 328 335 333 273 314 310 318 313 303 296 270 272 273 267 268 277 278 279 301 311
298 305 312 321 325 328 330 328 334 336 336 322 303 293 301 288 248 171 308 320 216 255 271 231 304 266 308 317 116 349 34 356 310 335 300 357 291 316 326 331 329 336 342 310 283 270 270 264 257 262 265 274 287 304
297 297 300 315 324 322 327 331 335 329 327 322 280 281 279 274 31 140 231 301 307 270 275 326 323 331 305 17 114 50 41 320 322 355 343 251 311 326 330 334 333 347 330 340 323 276 267 256 258 258 258 264 276 285
297 296 299 302 316 316 317 323 329 325 326 279 257 290 175 260 245 187 188 206 263 252 289 318 283 42 357 48 308 8 346 47 20 27 298 275 311 320 332 341 334 333 331 330 308 304 274 264 281 257 253 261 266 276
297 299 305 311 308 315 315 319 325 319 233 234 230 247 227 235 238 234 251 274 281 295 303 301 52 42 2 71 5 14 15 351 194 246 252 301 319 332 339 336 352 353 348 346 316 294 270 274 288 243 252 261 261 261
300 301 315 318 316 314 318 320 324 285 244 230 228 263 246 270 268 243 239 274 303 280 311 22 70 59 59 27 48 94 312 257 276 241 301 325 333 343 350 358 6 4 9 10 11 341 275 275 272 258 236 245 267 249
296 294 308 316 319 317 320 315 277 221 232 232 244 230 238 256 238 263 284 290 286 288 228 117 19 221 87 41 330 200 212 224 260 305 317 332 338 348 355 1 7 11 14 18 21 12 351 309 282 277 280 289 285 228
286 291 303 320 318 328 324 272 237 244 245 242 235 249 241 246 252 256 273 270 262 229 177 208 130 137 175 177 257 238 238 283 301 308 332 342 352 358 5 7 7 14 22 23 26 33 24 14 346 308 291 291 291 234
292 298 310 312 312 334 300 265 242 263 248 260 259 258 260 265 260 257 259 273 270 241 193 168 140 191 226 217 229 254 267 285 314 316 329 331 353 3 6 10 12 13 19 26 25 27 32 32 26 1 326 299 283 260
294 295 305 300 282 295 274 264 246 262 266 260 263 259 257 258 271 268 262 251 246 209 176 191 207 217 211 231 246 253 260 279 295 302 321 332 348 359 4 11 17 16 17 16 22 21 24 22 15 13 8 336 294 281
299 301 297 288 269 219 255 262 245 248 273 262 279 273 262 255 258 258 253 244 207 211 216 217 240 257 244 229 234 242 242 261 276 280 310 324 346 345 358 10 10 14 14 17 20 22 30 24 21 10 7 19 360 303
286 294 294 274 226 226 251 238 233 283 271 264 282 264 240 237 238 245 247 203 218 235 231 246 261 259 239 227 222 240 249 252 248 265 305 302 320 339 353 4 6 10 14 17 16 16 24 27 22 24 22 19 38 43
287 286 255 215 222 230 252 226 221 217 235 259 281 268 251 243 231 245 236 236 244 246 238 249 257 247 236 228 218 225 233 240 250 257 287 327 322 330 347 6 7 5 11 16 19 11 16 24 22 31 34 34 31 33
268 235 231 224 207 256 247 230 214 239 233 241 215 260 244 232 244 220 248 243 253 243 240 233 239 240 222 215 215 217 207 215 228 191 295 349 3 2 327 337 355 357 6 8 13 15 7 8 14 17 29 45 53 50
221 230 206 236 217 231 232 241 223 190 243 200 212 264 265 228 179 249 235 257 258 252 245 257 250 241 228 219 208 198 200 219 227 225 296 334 343 342 338 351 351 346 347 358 8 9 9 8 15 17 21 42 56 75
216 216 195 205 210 205 218 236 214 220 207 213 230 247 266 110 268 252 245 269 260 266 273 262 251 235 218 223 224 204 191 196 201 206 348 331 349 347 335 331 334 337 348 356 358 4 12 16 15 17 27 43 35 72
226 254 222 224 230 242 273 256 249 241 238 217 238 298 128 226 248 273 343 6 328 306 301 281 243 222 216 186 180 187 198 196 200 262 266 272 319 321 324 329 340 346 348 350 5 7 19 14 22 26 33 49 51 44
221 227 202 204 209 220 245 258 231 224 231 223 172 197 225 210 245 330 344 353 348 331 293 234 180 183 187 187 186 193 193 198 205 215 202 219 301 318 331 328 339 352 349 6 45 54 48 39 28 23 25 29 40 40
215 211 198 211 214 227 215 211 220 224 219 190 182 216 243 242 282 297 294 300 329 308 248 204 200 203 202 200 201 204 210 207 211 205 214 222 204 251 303 309 299 312 328 345 356 14 31 35 24 14 13 13 16 18
226 198 194 207 202 220 227 221 243 254 247 241 257 258 263 268 278 292 292 267 291 294 241 216 210 239 232 227 211 196 192 196 209 224 225 214 226 256 285 313 337 338 330 341 352 355 355 349 3 2 1 358 359 4
185 189 219 227 242 247 251 257 261 260 262 262 267 258 259 270 280 270 279 269 252 294 252 240 247 232 203 204 212 200 198 209 205 206 221 240 237 240 231 229 259 293 304 316 327 333 343 352 0 1 358 359 1 3
198 191 199 216 256 255 240 245 251 244 247 248 248 239 231 202 202 227 305 232 271 229 236 239 216 196 199 198 195 200 190 174 179 263 294 273 255 253 261 274 273 268 320 338 354 13 14 8 5 3 1 7 12 18
212 215 216 251 283 248 246 209 215 233 210 210 212 183 168 166 107 43 358 297 252 241 236 206 182 165 153 150 179 288 290 295 293 255 220 222 227 225 215 210 205 236 318 340 11 324 351 6 9 6 1 3 11 26